Regional Weather Roundup
Issued by NWS Charleston, SC

Current Version | Previous Version | Graphics & Text | Print | Product List | Glossary On
Versions: 1 2 3 4 5 6 7 8 9 10 11 12 13 14 15 16 17 18 19 20 21 22 23 24 25 26 27 28 29 30 31 32 33 34 35 36 37 38 39 40 41 42 43 44 45 46 47 48 49 50
000
ASUS42 KCHS 290813
RWRCHS

REGIONAL WEATHER ROUNDUP
NATIONAL WEATHER SERVICE CHARLESTON SC
400 AM EDT THU SEP 29 2016

NOTE: "FAIR" INDICATES FEW OR NO CLOUDS BELOW 12,000 FEET WITH NO
SIGNIFICANT WEATHER AND/OR OBSTRUCTIONS TO VISIBILITY.

NOT ALL STATIONS ARE QUALITY CONTROLLED. USE DATA WITH CAUTION...
ESPECIALLY DEWPOINT OBSERVATIONS.

SCZ027-030-031-034>040-042>050-290900-
...SOUTHEAST SOUTH CAROLINA...

CITY           SKY/WX    TMP DP  RH WIND       PRES   REMARKS
N CHARLESTON   MOCLDY    78  73  84 SW7       29.92S
WATERFRONT PRK   N/A     80  76  87 SW5       29.90F
MOUNT PLEASANT FAIR      79  75  89 CALM      29.92S
JOHNS ISLAND   FAIR      79  75  89 S6        29.92S
PINOPOLIS        N/A     75  75 100 VRB3      29.84F
MONCKS CORNER  PTSUNNY   73  72  94 SW3       29.91F
SUMMERVILLE    NOT AVBL
BEAUFORT MCAS  CLEAR     76  72  87 SW6       29.92F
BEAUFORT ARPT  FAIR      77  72  83 SW5       29.91F
HILTON HEAD IS CLEAR     77  73  88 SW8       29.93F
WALTERBORO     SUNNY     77  77 100 S5        29.93R
ALLENDALE      FAIR      73  72  94 CALM      29.90S

...SOUTHERN MIDLANDS AND PEE DEE...

CITY           SKY/WX    TMP DP  RH WIND       PRES   REMARKS
GEORGETOWN     FAIR      73  72  94 S3        29.93F
KINGSTREE      FAIR      73  72  94 SE3       29.91S
ORANGEBURG     MOCLDY    75  72  90 SW9       29.91S
BARNWELL       NOT AVBL
AIKEN          FAIR      70  68  94 SW5       29.94S
MANNING        PTSUNNY   77  72  83 S5        29.91S
COLUMBIA       CLEAR     74  70  87 SE5       29.89S
SUMTER         NOT AVBL
FLORENCE       MOCLDY    76  73  91 S7        29.90F
MYRTLE BEACH   MOCLDY    81  68  65 SW8       29.94F
N MYRTLE BEACH PTCLDY    80  75  84 S8        29.92F

$$

GAZ063-065-086>088-099>101-113>116-118-119-134>141-150-290900-
...SOUTHEAST GEORGIA...

CITY           SKY/WX    TMP DP  RH WIND       PRES   REMARKS
SAVANNAH ARPT  CLEAR     75  71  87 SW8       29.92F
HUNTER AAF     NOT AVBL
FORT STEWART   NOT AVBL
STATESBORO     CLEAR     74  73  95 CALM      29.92S
SYLVANIA       NOT AVBL
CLAXTON        FAIR      73  73 100 CALM      29.92S

...CSRA...CENTRAL AND FAR SOUTHEAST GEORGIA...

CITY           SKY/WX    TMP DP  RH WIND       PRES   REMARKS
THOMSON        PTCLDY    71  66  84 CALM      29.95S
AUGUSTA-BUSH   MOCLDY    72  69  90 SW5       29.89F
AUGUSTA-DANIEL CLEAR     73  67  81 CALM      29.90F
SWAINSBORO     FAIR      72  72 100 CALM      29.93S
VIDALIA        CLEAR     72  72 100 W5        29.93S
EASTMAN        FAIR      73  73 100 CALM      29.96S
HAZLEHURST     FAIR      75  75 100 CALM      29.92F
ALMA           PTCLDY    73  72  96 SW3       29.93F
WAYCROSS       CLEAR     75  75 100 SW5       29.94F
JESUP          FAIR      73  73 100 SW3       29.94S
BAXLEY         FAIR      73  73 100 CALM      29.93F
BRUNSWICK      CLEAR     75  73  94 SW8       29.95F
SAINT SIMONS   PTCLDY    75  72  90 SW10      29.94F

$$

SCZ027-028-034-036>038-045-046-048>050-GAZ119-141-290900-
...LAKE AND SUPPLEMENTAL COASTAL OBSERVATIONS...

STATION/POSITION TIME  TEMP    WIND        PRES    WAVE   SWELL
                       AIR SEA DIR/SP/G            HT/PER HT/PER/DIR
                 (UTC) (F)     (DEG/KT/KT) (MB)    (FT/S) (FT/S/D)
WINYAH BAY       0645   79     210/  5     1013.0
LAKE MURRAY      0720   76     170/  7/  9 1011.9
ACE BASIN NERRS  0645   77        CALM     1014.0
FORT PULASKI     0748   76 81  200/  5/  7 1013.8F
SAPELO ISLAND    0700   77     220/  9     1014.0

$$

ANZ835-935-AMZ111-154-330-350-352-354-370-450-454-472-290900-
...C-MAN AND BUOY OBSERVATIONS...

STATION/POSITION TIME  TEMP    WIND        PRES    WAVE   SWELL
                       AIR SEA DIR/SP/G            HT/PER HT/PER/DIR
                 (UTC) (F)     (DEG/KT/KT) (MB)    (FT/S) (FT/S/D)
BUOY 41004       0750   81 82  220/ 12/ 14 1013.1F   3/ 4   2/ 90/ 8
BUOY 41008       0750   80 82  220/ 14/ 17 1013.5F   3/ 4   2/ 60/11
FOLLY BEACH CMAN 0700   81     200/ 14/ 16 1013.6F
CAPERS NEARSHORE 0708   81 81  220/ 16/ 21 1013.0F
FRIPP NEARSHORE  0708   80 81  230/ 16/ 19 1013.5F


STATION/POSITION TIME  TEMP    WIND        PRES    WAVE   SWELL
                       AIR SEA DIR/SP/G            HT/PER HT/PER/DIR
                 (UTC) (F)     (DEG/KT/KT) (MB)    (FT/S) (FT/S/D)
5E ST. MARYS GA  0731      82                N/A     2/11   2/100/11
FRYING PAN BUOY  0750   82 82  180/ 10/ 12 1013.9F   3/11   2/100/11
BUOY 41025       0750   81 80  140/  6/  8 1015.5F   4/ 7   3/110/ 7
CAPE LOOKOUT NC  0700   79     150/  5/  6 1015.1F
BUOY 41002       0750   80 83  180/ 16/ 17 1016.0F   5/ 6   2/ 60/11
BUOY 41010       NOT AVBL
ST AUGUSTINE FL  0800   72 83  220/  6/  8 1016.0F


$$




USA.gov is the U.S. government's official web portal to all federal, state and local government web resources and services.